TimeCST,TemperatureF,Dew PointF,Humidity,Sea Level PressureIn,VisibilityMPH,Wind Direction,Wind SpeedMPH,Gust SpeedMPH,PrecipitationIn,Events,Conditions,WindDirDegrees,DateUTC
12:15 AM,68.0,64.4,88,29.82,5.0,South,5.8,-,N/A,,Partly Cloudy,190,2013-12-05 06:15:00
12:35 AM,68.0,64.4,88,29.82,5.0,SSW,6.9,-,N/A,,Haze,200,2013-12-05 06:35:00
12:55 AM,68.0,64.4,88,29.82,5.0,South,5.8,-,N/A,,Mostly Cloudy,190,2013-12-05 06:55:00
1:15 AM,68.0,64.4,88,29.82,4.0,South,4.6,-,N/A,,Mostly Cloudy,180,2013-12-05 07:15:00
1:35 AM,66.2,62.6,88,29.82,4.0,South,4.6,-,N/A,,Scattered Clouds,170,2013-12-05 07:35:00
1:55 AM,66.2,62.6,88,29.82,3.0,South,4.6,-,N/A,,Partly Cloudy,170,2013-12-05 07:55:00
2:15 AM,66.2,62.6,88,29.82,3.0,SE,3.5,-,N/A,,Partly Cloudy,140,2013-12-05 08:15:00
2:35 AM,66.2,62.6,88,29.82,2.5,SE,4.6,-,N/A,,Partly Cloudy,140,2013-12-05 08:35:00
2:55 AM,66.2,62.6,88,29.83,2.0,Calm,Calm,-,N/A,,Mostly Cloudy,0,2013-12-05 08:55:00
3:15 AM,66.2,62.6,88,29.83,2.0,Calm,Calm,-,N/A,,Overcast,0,2013-12-05 09:15:00
3:35 AM,66.2,62.6,88,29.84,1.5,Calm,Calm,-,N/A,,Overcast,0,2013-12-05 09:35:00
3:55 AM,64.4,62.6,94,29.84,1.8,Calm,Calm,-,N/A,,Mostly Cloudy,0,2013-12-05 09:55:00
4:15 AM,64.4,62.6,94,29.84,1.8,SE,5.8,-,N/A,,Scattered Clouds,140,2013-12-05 10:15:00
4:35 AM,66.2,62.6,88,29.85,1.8,Calm,Calm,-,N/A,,Scattered Clouds,0,2013-12-05 10:35:00
4:55 AM,66.2,62.6,88,29.85,1.2,Calm,Calm,-,N/A,,Mostly Cloudy,0,2013-12-05 10:55:00
5:15 AM,66.2,64.4,94,29.86,1.5,SE,4.6,-,N/A,,Scattered Clouds,140,2013-12-05 11:15:00
5:35 AM,66.2,64.4,94,29.87,1.2,NW,3.5,-,N/A,,Scattered Clouds,320,2013-12-05 11:35:00
5:55 AM,62.6,59.0,88,29.88,3.0,North,11.5,-,N/A,,Mostly Cloudy,350,2013-12-05 11:55:00
6:15 AM,59.0,55.4,88,29.91,5.0,North,13.8,17.3,N/A,,Overcast,360,2013-12-05 12:15:00
6:35 AM,55.4,51.8,88,29.93,7.0,North,15.0,19.6,N/A,,Overcast,360,2013-12-05 12:35:00
6:55 AM,55.4,50.0,82,29.94,6.0,North,13.8,17.3,N/A,,Overcast,360,2013-12-05 12:55:00
7:15 AM,53.6,48.2,82,29.95,6.0,North,11.5,16.1,N/A,Rain,Light Rain,10,2013-12-05 13:15:00
7:35 AM,51.8,46.4,82,29.98,4.0,North,12.7,19.6,N/A,Rain,Light Rain,10,2013-12-05 13:35:00
7:55 AM,50.0,46.4,87,30.00,2.5,North,10.4,20.7,N/A,,Haze,360,2013-12-05 13:55:00
8:15 AM,48.2,44.6,87,30.00,2.0,North,13.8,19.6,N/A,Rain,Light Rain,360,2013-12-05 14:15:00
8:35 AM,48.2,44.6,87,30.01,3.0,North,10.4,21.9,N/A,,Overcast,360,2013-12-05 14:35:00
8:55 AM,48.2,44.6,87,30.02,4.0,North,11.5,16.1,N/A,,Overcast,10,2013-12-05 14:55:00
9:15 AM,48.2,44.6,87,30.03,5.0,North,9.2,-,N/A,,Overcast,360,2013-12-05 15:15:00
9:35 AM,48.2,42.8,82,30.02,5.0,NNE,16.1,-,N/A,,Haze,20,2013-12-05 15:35:00
9:55 AM,46.4,42.8,87,30.04,5.0,North,12.7,17.3,N/A,,Overcast,10,2013-12-05 15:55:00
10:15 AM,46.4,41.0,81,30.05,7.0,NNE,9.2,18.4,N/A,,Overcast,20,2013-12-05 16:15:00
10:35 AM,46.4,41.0,81,30.06,7.0,North,9.2,-,N/A,,Overcast,360,2013-12-05 16:35:00
10:55 AM,46.4,41.0,81,30.05,3.0,North,15.0,19.6,N/A,Rain,Light Rain,360,2013-12-05 16:55:00
11:15 AM,44.6,41.0,87,30.05,2.5,North,11.5,-,N/A,Rain,Light Rain,10,2013-12-05 17:15:00
11:35 AM,44.6,41.0,87,30.05,2.0,NNE,10.4,18.4,N/A,Rain,Light Rain,20,2013-12-05 17:35:00
11:55 AM,44.6,41.0,87,30.05,1.8,North,6.9,-,N/A,Rain,Light Rain,360,2013-12-05 17:55:00
12:15 PM,44.6,39.2,81,30.04,1.8,North,11.5,-,N/A,Rain,Light Rain,10,2013-12-05 18:15:00
12:35 PM,42.8,39.2,87,30.04,3.0,North,10.4,-,N/A,Rain,Light Rain,10,2013-12-05 18:35:00
12:55 PM,42.8,39.2,87,30.04,3.0,North,10.4,-,N/A,Rain,Light Rain,360,2013-12-05 18:55:00
1:15 PM,42.8,37.4,81,30.04,5.0,North,8.1,-,N/A,Rain,Light Rain,360,2013-12-05 19:15:00
1:35 PM,41.0,37.4,87,30.04,6.0,North,10.4,18.4,N/A,,Haze,360,2013-12-05 19:35:00
1:55 PM,41.0,35.6,81,30.04,9.0,North,10.4,-,N/A,,Overcast,10,2013-12-05 19:55:00
2:15 PM,41.0,32.0,70,30.04,10.0,North,10.4,17.3,N/A,,Overcast,10,2013-12-05 20:15:00
2:35 PM,41.0,32.0,70,30.05,8.0,North,12.7,19.6,N/A,Rain,Light Rain,10,2013-12-05 20:35:00
2:55 PM,41.0,32.0,70,30.06,10.0,North,8.1,-,N/A,,Overcast,360,2013-12-05 20:55:00
3:15 PM,41.0,32.0,70,30.05,10.0,North,9.2,-,N/A,,Overcast,350,2013-12-05 21:15:00
3:35 PM,39.2,32.0,75,30.06,9.0,North,12.7,18.4,N/A,,Overcast,10,2013-12-05 21:35:00
3:55 PM,39.2,32.0,75,30.06,8.0,NNE,11.5,-,N/A,,Overcast,20,2013-12-05 21:55:00
4:15 PM,39.2,32.0,75,30.05,8.0,NNE,15.0,19.6,N/A,,Overcast,20,2013-12-05 22:15:00
4:35 PM,39.2,32.0,75,30.07,8.0,North,9.2,17.3,N/A,,Overcast,10,2013-12-05 22:35:00
4:55 PM,39.2,32.0,75,30.08,8.0,North,8.1,-,N/A,,Overcast,360,2013-12-05 22:55:00
5:15 PM,37.4,32.0,81,30.08,8.0,North,9.2,-,N/A,Rain,Light Rain,10,2013-12-05 23:15:00
5:35 PM,37.4,32.0,81,30.09,6.0,North,10.4,-,N/A,Rain,Light Rain,360,2013-12-05 23:35:00
5:55 PM,37.4,32.0,81,30.08,5.0,North,11.5,-,N/A,,Overcast,10,2013-12-05 23:55:00
6:15 PM,37.4,32.0,81,30.10,5.0,North,6.9,-,N/A,,Overcast,10,2013-12-06 00:15:00
6:35 PM,37.4,32.0,81,30.09,5.0,NNE,10.4,-,N/A,Rain,Light Rain,20,2013-12-06 00:35:00
6:55 PM,35.6,32.0,87,30.11,2.5,North,8.1,16.1,0.05,Rain,Heavy Rain,10,2013-12-06 00:55:00
7:15 PM,35.6,32.0,87,30.11,0.8,North,8.1,-,0.16,Rain,Heavy Rain,10,2013-12-06 01:15:00
7:35 PM,35.6,32.0,87,30.12,5.0,North,10.4,16.1,0.22,Rain,Light Rain,10,2013-12-06 01:35:00
7:55 PM,35.6,32.0,87,30.11,3.0,NNE,9.2,-,0.24,Rain,Rain,30,2013-12-06 01:55:00
8:15 PM,35.6,32.0,87,30.10,5.0,NNE,8.1,-,N/A,Rain,Light Rain,20,2013-12-06 02:15:00
8:35 PM,35.6,32.0,87,30.12,4.0,NNE,9.2,-,N/A,Rain,Light Rain,20,2013-12-06 02:35:00
8:55 PM,35.6,32.0,87,30.12,3.0,North,6.9,-,0.01,Rain,Rain,360,2013-12-06 02:55:00
9:15 PM,35.6,32.0,87,30.12,4.0,NNE,11.5,-,0.01,Rain,Light Rain,20,2013-12-06 03:15:00
9:35 PM,35.6,32.0,87,30.12,4.0,North,8.1,-,0.01,Rain,Light Rain,10,2013-12-06 03:35:00
9:55 PM,35.6,32.0,87,30.13,3.0,NNE,8.1,-,0.01,Rain,Light Rain,20,2013-12-06 03:55:00
10:15 PM,35.6,32.0,87,30.14,1.8,NNE,12.7,-,0.02,Rain,Rain,20,2013-12-06 04:15:00
10:35 PM,35.6,32.0,87,30.13,3.0,NNE,12.7,-,0.03,Rain,Heavy Rain,20,2013-12-06 04:35:00
10:55 PM,35.6,32.0,87,30.14,4.0,NNE,11.5,-,0.03,Rain,Rain,30,2013-12-06 04:55:00
11:15 PM,35.6,32.0,87,30.14,6.0,NNE,9.2,-,N/A,Rain,Light Rain,20,2013-12-06 05:15:00
11:35 PM,35.6,32.0,87,30.13,5.0,NNE,9.2,-,N/A,Rain,Light Rain,20,2013-12-06 05:35:00
11:55 PM,35.6,32.0,87,30.13,5.0,NNE,8.1,-,N/A,Rain,Light Rain,20,2013-12-06 05:55:00